www.pogodaiklimat.ru

Погода и климат >> Архив погоды >> Индонезия >> Джаяпура


ПОГОДА в Джаяпуре

  • Прогноз погоды в Джаяпуре
  • Монитор погоды в Джаяпуре

АРХИВ ПОГОДЫ в Джаяпуре

Время (UTC), дата Ветер
(напр.,м/с)
 
Видим.   Явления Облачность Т
(С)
Тd
(С)
f
(%)
Тe
(С)
Тes
(С)
Комфортность P
(гПа)
Po
(гПа)
Тmin
(С)
Tmax
(С)
R
(мм)
R24
(мм)
S
(см)
00 10.09 СВ 2 10 км 6/3 450 м
[Cu hum Ac trans Ci fib]
+28.0 +25.3 85 +41 +48 опасность
перегрева
1010.4 1010.1 +24.3
03 10.09 СВ 6 10 км 4/3 450 м
[Cu hum Ci fib]
+30.9 +26.1 76 +47 +53 опасность
перегрева
1007.2 1006.9
06 10.09 СЗ 5 8000 м 4/1 420 м
[Cu hum Ci sp]
+32.4 +23.1 58 +43 +47 опасность
перегрева
1005.6 1005.2
09 10.09 ЮЗ 2 7000 м 8/1 420 м
[Cu hum Ac trans Ci sp]
+29.0 +28.2 95 +48 +48 опасность
перегрева
1008.1 1007.8
12 10.09 штиль 0 7000 м 9/4 400 м
[Cb cap Ac As]
+26.6 +24.7 89 +38 +38 очень
душно
1010.8 1010.4 +34.0
21 10.09 Ю 2 10 км 8/3 450 м
[Sc Ac trans Ci sp]
+26.3 +25.1 93 +38 +38 очень
душно
1011.2 1010.8
00 11.09 штиль 0 10 км 6/4 450 м
[Cu hum Ac trans Ci fib]
+29.2 +26.6 86 +45 +54 опасность
перегрева
1011.9 1011.6 +26.2
03 11.09 СВ 4 10 км 4/4 450 м
[Cu hum Ac trans Ci fib]
+30.0 +27.6 87 +49 +58 опасность
перегрева
1009.7 1009.3
06 11.09 С 4 10 км 9/3 420 м
[Cu hum Ac trans Ci sp]
+30.0 +25.2 76 +44 +46 опасность
перегрева
1008.0 1007.6
09 11.09 СЗ 4 9000 м 8/1 420 м
[Cu hum Ac trans Ci sp]
+28.8 +25.3 81 +42 +42 опасность
перегрева
1009.9 1009.5
12 11.09 СВ 7 8000 м 9/3 420 м
[Cu hum Ac As Ci sp]
+28.8 +26.1 85 +43 +43 опасность
перегрева
1012.0 1011.6 +31.8
21 11.09 ЮЗ 1 9000 м 4/1 420 м
[Cu hum Ac trans Ci sp]
+26.4 +24.2 88 +37 +37 очень
душно
1011.1 1010.8
00 12.09 В 3 9000 м 4/1 420 м
[Cu hum Ci sp]
+29.4 +23.9 72 +40 +50 очень
душно
1011.4 1011.1 +26.4
03 12.09 СВ 5 9000 м 4/3 420 м
[Cu hum Ci fib]
+31.8 +25.1 68 +46 +53 опасность
перегрева
1008.3 1007.9
06 12.09 С 6 10 км 3/1 420 м
[Cu hum Ci fib]
+30.0 +26.0 79 +45 +48 опасность
перегрева
1007.2 1006.8
09 12.09 С 5 9000 м осадки на расстоянии 8/4 420 м
[Cu hum Ac trans Ci sp]
+28.8 +25.6 83 +43 +43 опасность
перегрева
1009.4 1009.1
12 12.09 СВ 5 8000 м осадки на расстоянии 8/4 420 м
[Cu hum Ac trans Ci sp]
+28.6 +25.7 84 +42 +42 опасность
перегрева
1011.8 1011.4 +32.2
21 12.09 ЮЗ 2 5000 м мгла 4/0
[Ci fib]
+26.4 +22.8 81 +35 +35 очень
душно
1011.5 1011.2
00 13.09 В 2 5000 м мгла 4/1 500 м
[Sc Ci fib]
+29.4 +25.0 77 +42 +54 опасность
перегрева
1012.2 1011.8 +26.4
03 13.09 СВ 4 5000 м мгла 4/4 450 м
[Cu med, cong]
+30.5 +24.8 72 +44 +52 опасность
перегрева
1009.5 1009.2
06 13.09 СЗ 3 10 км {туман} 3/1 420 м
[Cu hum Ci fib]
+30.0 +24.9 74 +43 +50 опасность
перегрева
1008.2 1007.9
09 13.09 С 5 9000 м 6/3 420 м
[Cu hum Ac trans Ci sp]
+28.6 +25.1 81 +41 +41 опасность
перегрева
1009.8 1009.4
12 13.09 С 4 8000 м 8/3 420 м
[Cu hum Ac As Ci sp]
+28.4 +25.2 83 +41 +41 опасность
перегрева
1011.9 1011.5 +31.0
21 13.09 Ю 2 8000 м 5/3 500 м
[Sc Ci sp]
+25.3 +22.1 82 +33 +33 очень
душно
1012.2 1011.9
00 14.09 штиль 0 10 км 3/1 450 м
[Cu hum Ci fib]
+28.9 +23.3 72 +39 +55 опасность
солнечного
удара
1013.6 1013.2 +25.1
03 14.09 С 4 10 км 3/3 450 м
[Cu med, cong]
+30.5 +25.8 76 +45 +55 опасность
перегрева
1011.0 1010.6
06 14.09 С 5 10 км 1/1 420 м
[Cu hum Ci fib]
+30.4 +25.0 73 +44 +48 опасность
перегрева
1008.9 1008.5
09 14.09 С 1 9000 м 1/1 420 м
[Cu hum Ci fib]
+28.8 +25.0 80 +42 +42 опасность
перегрева
1010.4 1010.1
12 14.09 СВ 2 9000 м 5/3 420 м
[Cu hum Ac trans Ci fib]
+28.4 +25.4 84 +42 +42 опасность
перегрева
1012.5 1012.2 +31.0
21 14.09 штиль 0 8000 м мгла 6/3 420 м
[Cu hum Ac trans Ci sp]
+25.6 +23.7 89 +35 +35 очень
душно
1011.9 1011.6
00 15.09 штиль 0 9000 м {туман} 5/1 420 м
[Cu hum Ci fib]
+29.0 +25.0 79 +42 +56 опасность
перегрева
1013.2 1012.9 +25.6
03 15.09 СВ 2 10 км 3/1 420 м
[Cu hum Ci fib]
+30.2 +25.1 74 +44 +64 опасность
перегрева
1010.6 1010.2
06 15.09 С 4 10 км 4/1 420 м
[Cu hum Ci fib]
+30.4 +25.9 77 +45 +50 опасность
перегрева
1008.9 1008.5
09 15.09 С 4 9000 м 5/3 420 м
[Cu hum Ci fib]
+28.8 +25.9 84 +43 +43 опасность
перегрева
1010.6 1010.3
12 15.09 СВ 3 9000 м 8/3 420 м
[Cu hum Ac trans Ci sp]
+28.4 +26.0 87 +43 +43 опасность
перегрева
1012.4 1012.1 +31.2
21 15.09 штиль 0 5000 м мгла 5/3 500 м
[Sc Ci sp]
+26.2 +23.0 83 +35 +35 очень
душно
1012.4 1012.0
00 16.09 В 2 5000 м мгла 5/3 450 м
[Cu med, cong Ci sp]
+29.6 +24.9 76 +42 +51 опасность
перегрева
1012.7 1012.3 +26.1
03 16.09 С 5 <100 м 4/4 400 м
[Cb calv]
+30.3 +25.6 76 +45 +51 опасность
перегрева
1010.5 1010.1
06 16.09 С 3 8000 м 4/3 420 м
[Cu hum Ci sp]
+30.2 +25.9 78 +45 +50 опасность
перегрева
1009.1 1008.8
09 16.09 СВ 7 7000 м осадки на расстоянии 8/4 400 м
[Cb cap Ac As Ci sp]
+29.0 +25.8 83 +43 +43 опасность
перегрева
1010.0 1009.7
12 16.09 В 2 7000 м осадки на расстоянии 9/4 400 м
[Cb cap Ac As Ci sp]
+28.6 +26.2 87 +43 +43 опасность
перегрева
1012.1 1011.7 +31.2
21 16.09 ЮЗ 2 5000 м мгла 4/1 480 м
[Cu hum Ci fib]
+26.6 +23.9 85 +37 +37 очень
душно
1012.5 1012.2

 

Местоположение метеостанции Джаяпура (Индонезия): широта -2.59 долгота 140.71 высота над уровнем моря 3 м.

В архиве по умолчанию представлена погода в Джаяпуре за последнюю неделю. Архивные данные за месяц целиком и за предыдущие месяцы, начиная с января 2011 года, Вы можете получить, выбрав интересующий диапазон дат из раскрывающегося списка и нажав кнопку "Ввод!".


*Определитесь, кто Вы:
робот инопланетянин человек

Внимание! Время в таблицах - всемирное. Для получения местного времени необходимо прибавить поправку, которая равна 9 ч.

Смотрите также архив погоды в соседних городах и на ближайших метеорологических станциях:

Погода в Сентани (Индонезия) (21 км)
Погода в Сарми (Индонезия) (238 км)
Погода в Вамене (Индонезия) (256 км)
Погода в Танах Мерах (Индонезия) (393 км)
Погода в Коконао (Индонезия) (450 км)
Погода в Энаротали (Индонезия) (504 км)
Погода в Серуи (Индонезия) (504 км)
Погода в Биаке (Индонезия) (535 км)
Погода в Набире (Индонезия) (585 км)
Погода в Мерауке (Индонезия) (655 км)

Пояснения к столбцам:

Ветер - указаны скорость ветра в м/с - средняя за 10 мин, порывы в срок и между сроками (в фигурных скобках) и направление, откуда дует ветер: С - северный, СВ - северо-восточный, В - восточный, ЮВ - юго-восточный, Ю - южный, ЮЗ - юго-западный, З - западный, СЗ - северо-западный.
Видимость - горизонтальная дальность видимости в метрах или километрах. При видимости от 1 до 10 км при отсутствии осадков обычно наблюдается дымка, при ухудшении видимости до 1 км и менее - туман. В сухую погоду видимость может ухудшаться дымом, пылью или мглою.
Явления - указаны атмосферные явления, наблюдавшиеся в срок или в последний час перед сроком; фигурными скобками обозначены явления, наблюдавшиеся между сроками (за 1-3 часа до срока); квадратными скобками обозначены град или гололедные отложения с указанием их диаметра в мм.
Облачность - указаны через наклонную черту общая и нижняя облачность в баллах и высота нижней границы облаков в метрах; квадратными скобками обозначены формы облаков: Ci - перистые, Cs - перисто-слоистые, Cc - перисто-кучевые, Ac - высококучевые, As - высокослоистые, Sc - слоисто-кучевые, Ns - слоисто-дождевые, Cu - кучевые, Cb - кучево-дождевые. Подробнее классификацию облаков см. в Атласе облаков (PDF).
T - Температура воздуха - температура, измеренная на высоте 2 м над землей.
Td - Температура точки росы - температура, при понижении до которой содержащийся в воздухе водяной пар достигнет насыщения.
f - Относительная влажность воздуха - влажноcть воздуха, измеренная на высоте 2 м над землей.
Te - Эффективная температура - температура, которую ощущает одетый по сезону человек в тени. Характеристика душности погоды. При расчете учитывается влияние влажности воздуха и скорости ветра на теплоощущения человека.
Tes - Эффективная температура на солнце - температура, которую ощущает человек, с поправкой на солнечный нагрев. Характеристика знойности погоды. Зависит от высоты солнца над горизонтом, облачности и скорости ветра. Ночью, в пасмурную погоду, а также при ветре 12 м/с и более поправка равна нулю.
P - Атмосферное давление - приведенное к уровню моря атмосферное давление.
Po - Атмосферное давление - измеренное на уровне метеостанции атмосферное давление.
Tmin - Минимальная температура - минимум температуры воздуха на высоте 2 м над землей.
Tmax - Максимальная температура - максимум температуры воздуха на высоте 2 м над землей.
R - Количество осадков - Количество выпавших осадков за период времени, мм. При наведении курсора мыши на число - период времени, за который выпало указанное количество осадков.
R24 - Количество осадков - Количество выпавших осадков за 24 часа, мм.
S - Снежный покров - Высота снежного покрова, см. При наведении курсора мыши на число - состояние снежного покрова и степень покрытия местности в баллах.